GW3210 Weather Reports


time (UTC)temp
C
wind
direction
speed
KPH
gust
KPH
rain 1hr
cm
rain 24hr
cm
rain mn
cm
humidity
%
barometer
mb
20260503200117 30 315 8.0 12.9 0.00 0.00 0.00 31 1012.9
20260503195116 29 270 8.0 11.3 0.00 0.00 0.00 28 1012.9
20260503194117 29 293 3.2 4.8 0.00 0.00 0.00 30 1013.0
20260503193116 28 270 6.4 9.7 0.00 0.00 0.00 31 1013.1
20260503192116 28 248 4.8 8.0 0.00 0.00 0.00 33 1013.1
20260503191116 28 270 4.8 6.4 0.00 0.00 0.00 35 1013.2
20260503190117 27 270 4.8 8.0 0.00 0.00 0.00 36 1013.3
20260503185117 26 293 9.7 12.9 0.00 0.00 0.00 37 1013.4
20260503184116 26 315 3.2 6.4 0.00 0.00 0.00 36 1013.5
20260503183116 26 270 4.8 6.4 0.00 0.00 0.00 37 1013.5
20260503182116 25 270 4.8 9.7 0.00 0.00 0.00 39 1013.6
20260503181116 25 293 3.2 9.7 0.00 0.00 0.00 43 1013.7
20260503180116 23 315 4.8 9.7 0.00 0.00 0.00 44 1013.9
20260503175116 23 293 4.8 4.8 0.00 0.00 0.00 46 1013.9
20260503174116 23 293 6.4 12.9 0.00 0.00 0.00 49 1014.0
20260503173136 22 315 3.2 4.8 0.00 0.00 0.00 51 1014.0
20260503172116 21 293 3.2 4.8 0.00 0.00 0.00 53 1014.0
20260503171116 20 0 6.4 8.0 0.00 0.00 0.00 55 1014.0
20260503170116 20 315 3.2 6.4 0.00 0.00 0.00 57 1014.0
20260503160116 16 338 1.6 3.2 0.00 0.00 0.00 64 1014.2
20260503150115 15 293 1.6 3.2 0.00 0.00 0.00 71 1014.2
20260503140116 12 0.0 1.6 0.00 0.00 0.00 82 1014.1
20260503131136 12 0.0 0.0 0.00 0.00 0.00 75 1013.9
20260503130115 12 0.0 0.0 0.00 0.00 0.00 75 1013.8
20260503120115 12 158 1.6 1.6 0.00 0.00 0.00 74 1014.0
20260503110117 13 0.0 0.0 0.00 0.00 0.00 69 1014.2
20260503100138 13 158 1.6 3.2 0.00 0.00 0.00 67 1014.4
20260503090117 13 158 4.8 6.4 0.00 0.03 0.00 67 1014.4
20260503081117 14 0.0 0.0 0.00 0.03 0.00 66 1014.5
20260503080117 14 0.0 0.0 0.00 0.03 0.00 66 1014.5
20260503072137 15 270 1.6 1.6 0.00 0.03 0.00 64 1014.7
20260503071117 15 0.0 1.6 0.00 0.03 0.00 63 1014.6
20260503070117 15 270 1.6 3.2 0.00 0.03 0.00 63 1014.7
20260503060116 16 180 3.2 6.4 0.00 0.03 0.03 61 1014.5
20260503055115 16 338 3.2 6.4 0.00 0.03 0.03 61 1014.2
20260503054136 16 338 9.7 12.9 0.00 0.03 0.03 62 1014.2
20260503053115 16 0 3.2 6.4 0.00 0.03 0.03 62 1014.4
20260503052118 16 338 1.6 3.2 0.00 0.03 0.03 61 1014.6
20260503051158 16 0 3.2 4.8 0.00 0.03 0.03 61 1014.5
20260503050117 16 0.0 1.6 0.00 0.03 0.03 61 1014.7
20260503045117 16 0.0 0.0 0.00 0.03 0.03 61 1014.7
20260503044118 16 0.0 0.0 0.00 0.03 0.03 61 1014.9
20260503043117 16 135 1.6 3.2 0.00 0.03 0.03 61 1015.0
20260503042117 16 0.0 0.0 0.00 0.03 0.03 60 1014.8
20260503041218 16 135 1.6 3.2 0.00 0.03 0.03 60 1014.8
20260503040118 17 0.0 0.0 0.00 0.03 0.03 59 1014.8
20260503035138 17 135 1.6 3.2 0.00 0.03 0.03 59 1014.7
20260503034137 17 135 1.6 3.2 0.00 0.03 0.03 58 1014.9
20260503033117 17 158 4.8 8.0 0.00 0.03 0.03 57 1014.7
20260503032117 17 113 1.6 3.2 0.00 0.03 0.03 57 1014.7
20260503031117 18 158 3.2 4.8 0.00 0.03 0.03 55 1014.6
20260503030117 18 180 4.8 9.7 0.00 0.03 0.03 54 1014.6
20260503025117 19 135 4.8 6.4 0.00 0.03 0.03 53 1014.4
20260503024117 20 180 3.2 6.4 0.00 0.03 0.03 52 1014.3
20260503023138 20 158 6.4 12.9 0.00 0.03 0.03 51 1014.1
20260503022138 20 135 6.4 8.0 0.00 0.03 0.03 51 1014.2
20260503021117 20 135 4.8 6.4 0.00 0.03 0.03 50 1013.8
20260503020117 20 135 4.8 8.0 0.00 0.03 0.03 50 1013.6
20260503015117 21 135 6.4 8.0 0.00 0.03 0.03 49 1013.6
20260503014117 21 158 4.8 8.0 0.00 0.03 0.03 48 1013.4
20260503013117 22 180 4.8 8.0 0.00 0.03 0.03 48 1013.4
20260503012117 22 0.0 1.6 0.00 0.03 0.03 46 1013.3
20260503011116 22 315 1.6 3.2 0.00 0.03 0.03 46 1013.3
20260503010117 22 0 1.6 3.2 0.00 0.03 0.03 46 1013.3
20260503005117 22 315 3.2 4.8 0.00 0.03 0.03 45 1013.4
20260503004116 22 293 4.8 6.4 0.00 0.03 0.03 45 1013.4
20260503003117 22 293 4.8 6.4 0.00 0.03 0.03 45 1013.5
20260503002117 22 270 3.2 3.2 0.00 0.03 0.03 44 1013.5
20260503001117 23 293 4.8 8.0 0.00 0.03 0.03 44 1013.4
20260503000137 22 270 4.8 9.7 0.00 0.03 0.03 44 1013.5
20260502235117 23 293 8.0 11.3 0.00 0.03 0.03 44 1013.5
20260502234116 22 293 4.8 6.4 0.00 0.03 0.03 44 1013.6
20260502233117 22 225 4.8 8.0 0.00 0.03 0.03 44 1013.7
20260502232137 22 293 6.4 11.3 0.00 0.03 0.03 44 1013.7
20260502231116 22 293 8.0 12.9 0.00 0.03 0.03 45 1013.8
20260502230137 22 248 3.2 4.8 0.00 0.03 0.03 47 1014.1
20260502225116 21 270 6.4 12.9 0.00 0.03 0.03 47 1014.3
20260502224117 21 315 4.8 6.4 0.00 0.03 0.03 47 1014.5
20260502223117 21 338 3.2 6.4 0.00 0.03 0.03 47 1014.5
20260502222116 21 248 4.8 6.4 0.00 0.03 0.03 49 1014.6
20260502221117 21 270 9.7 12.9 0.00 0.03 0.03 47 1014.8
20260502220116 21 293 6.4 9.7 0.00 0.03 0.03 48 1014.9
20260502215117 21 293 4.8 11.3 0.00 0.03 0.03 48 1015.0
20260502214116 20 338 6.4 9.7 0.00 0.03 0.03 50 1015.2
20260502213117 20 248 3.2 3.2 0.00 0.03 0.03 48 1015.3
20260502212117 20 225 3.2 6.4 0.00 0.03 0.03 50 1015.4
20260502211116 20 293 11.3 12.9 0.00 0.03 0.03 50 1015.5
20260502210116 19 225 3.2 4.8 0.00 0.03 0.03 51 1015.8
20260502205117 18 0 4.8 8.0 0.00 0.03 0.03 54 1015.8
20260502204116 18 270 6.4 11.3 0.00 0.03 0.03 55 1016.0
20260502203407 17 315 4.8 8.0 0.00 0.03 0.03 56 1016.0
20260502203216 17 293 6.4 9.7 0.00 0.03 0.03 56 1016.0
20260502202216 18 45 1.6 3.2 0.00 0.03 0.03 53 1016.2
20260502201216 18 270 8.0 12.9 0.00 0.03 0.03 53 1016.2